Time,TemperatureF,DewpointF,PressureIn,WindDirection,WindDirectionDegrees,WindSpeedMPH,WindSpeedGustMPH,Humidity,HourlyPrecipIn,Conditions,Clouds,dailyrainin,SoftwareType,DateUTC
2013-01-23 00:00:00,5.9,-0.6,30.35,SSW,196,0.0,4.0,74,0.00,,,0.00,VWS V14.01,2013-01-23 06:00:00,
2013-01-23 00:03:00,6.0,-0.5,30.35,SSW,196,0.0,1.0,74,0.00,,,0.00,VWS V14.01,2013-01-23 06:03:00,
2013-01-23 00:08:00,6.0,-0.5,30.35,SSW,196,0.0,2.0,74,0.00,,,0.00,VWS V14.01,2013-01-23 06:08:00,
2013-01-23 00:13:00,6.1,-0.4,30.35,SSW,195,0.0,4.0,74,0.00,,,0.00,VWS V14.01,2013-01-23 06:13:00,
2013-01-23 00:19:00,6.2,0.0,30.35,SSW,196,0.0,4.0,75,0.00,,,0.00,VWS V14.01,2013-01-23 06:19:00,
2013-01-23 00:24:00,6.3,0.1,30.35,SSW,196,0.0,4.0,75,0.00,,,0.00,VWS V14.01,2013-01-23 06:24:00,
2013-01-23 00:29:00,6.3,0.4,30.35,SSW,196,0.0,4.0,76,0.00,,,0.00,VWS V14.01,2013-01-23 06:29:00,
2013-01-23 00:30:00,6.4,0.5,30.34,SSW,196,0.0,4.0,76,0.00,,,0.00,VWS V14.01,2013-01-23 06:30:00,
2013-01-23 00:35:00,6.4,0.5,30.34,SSW,196,0.0,0.0,76,0.00,,,0.00,VWS V14.01,2013-01-23 06:35:00,
2013-01-23 00:40:00,6.5,0.6,30.34,SSW,196,0.0,0.0,76,0.00,,,0.00,VWS V14.01,2013-01-23 06:40:00,
2013-01-23 00:45:00,6.6,0.7,30.34,SSW,196,0.0,0.0,76,0.00,,,0.00,VWS V14.01,2013-01-23 06:45:00,
2013-01-23 00:50:00,6.6,0.7,30.33,SSW,196,0.0,0.0,76,0.00,,,0.00,VWS V14.01,2013-01-23 06:50:00,
2013-01-23 00:56:00,6.7,0.8,30.33,SSW,196,0.0,0.0,76,0.00,,,0.00,VWS V14.01,2013-01-23 06:56:00,
2013-01-23 01:00:00,6.7,0.8,30.33,SSW,196,0.0,0.0,76,0.00,,,0.00,VWS V14.01,2013-01-23 07:00:00,
2013-01-23 01:01:00,6.7,0.8,30.33,SSW,196,0.0,0.0,76,0.00,,,0.00,VWS V14.01,2013-01-23 07:01:00,
2013-01-23 01:07:00,6.7,1.0,30.33,SSW,196,0.0,0.0,77,0.00,,,0.00,VWS V14.01,2013-01-23 07:07:00,
2013-01-23 01:12:00,6.8,1.1,30.33,SSW,196,0.0,0.0,77,0.00,,,0.00,VWS V14.01,2013-01-23 07:12:00,
2013-01-23 01:17:00,6.8,1.1,30.33,SSW,194,0.0,2.0,77,0.00,,,0.00,VWS V14.01,2013-01-23 07:17:00,
2013-01-23 01:22:00,6.9,1.2,30.33,SSW,195,0.0,2.0,77,0.00,,,0.00,VWS V14.01,2013-01-23 07:22:00,
2013-01-23 01:28:00,7.0,1.0,30.32,SSW,196,0.0,2.0,76,0.00,,,0.00,VWS V14.01,2013-01-23 07:28:00,
2013-01-23 01:30:00,7.0,1.0,30.32,SSW,196,0.0,2.0,76,0.00,,,0.00,VWS V14.01,2013-01-23 07:30:00,
2013-01-23 01:33:00,7.1,1.4,30.32,SSW,196,0.0,0.0,77,0.00,,,0.00,VWS V14.01,2013-01-23 07:33:00,
2013-01-23 01:38:00,7.1,1.1,30.32,SSW,196,0.0,2.0,76,0.00,,,0.00,VWS V14.01,2013-01-23 07:38:00,
2013-01-23 01:43:00,7.2,1.2,30.32,SSW,195,0.0,2.0,76,0.00,,,0.00,VWS V14.01,2013-01-23 07:43:00,
2013-01-23 01:49:00,7.3,1.6,30.32,SSW,195,0.0,2.0,77,0.00,,,0.00,VWS V14.01,2013-01-23 07:49:00,
2013-01-23 01:54:00,7.3,1.3,30.32,SSW,196,0.0,2.0,76,0.00,,,0.00,VWS V14.01,2013-01-23 07:54:00,
2013-01-23 02:00:00,7.3,1.3,30.32,SSW,196,0.0,2.0,76,0.00,,,0.00,VWS V14.01,2013-01-23 08:00:00,
2013-01-23 02:05:00,7.4,1.7,30.32,SSW,196,0.0,0.0,77,0.00,,,0.00,VWS V14.01,2013-01-23 08:05:00,
2013-01-23 02:10:00,7.4,1.7,30.31,SSW,196,0.0,0.0,77,0.00,,,0.00,VWS V14.01,2013-01-23 08:10:00,
2013-01-23 02:15:00,7.4,1.7,30.32,SSW,196,0.0,0.0,77,0.00,,,0.00,VWS V14.01,2013-01-23 08:15:00,
2013-01-23 02:21:00,7.5,1.8,30.32,SSW,195,0.0,0.0,77,0.00,,,0.00,VWS V14.01,2013-01-23 08:21:00,
2013-01-23 02:27:00,7.5,1.8,30.32,SSW,196,0.0,0.0,77,0.00,,,0.00,VWS V14.01,2013-01-23 08:27:00,
2013-01-23 02:30:00,7.5,1.8,30.32,SSW,195,0.0,0.0,77,0.00,,,0.00,VWS V14.01,2013-01-23 08:30:00,
2013-01-23 02:32:00,7.6,1.9,30.32,SSW,196,0.0,0.0,77,0.00,,,0.00,VWS V14.01,2013-01-23 08:32:00,
2013-01-23 02:37:00,7.6,1.9,30.31,SSW,196,0.0,0.0,77,0.00,,,0.00,VWS V14.01,2013-01-23 08:37:00,
2013-01-23 02:42:00,7.6,1.9,30.31,SSW,196,0.0,2.0,77,0.00,,,0.00,VWS V14.01,2013-01-23 08:42:00,
2013-01-23 02:48:00,7.7,2.0,30.31,SSW,196,0.0,2.0,77,0.00,,,0.00,VWS V14.01,2013-01-23 08:48:00,
2013-01-23 02:53:00,7.7,2.0,30.31,SSW,196,0.0,2.0,77,0.00,,,0.00,VWS V14.01,2013-01-23 08:53:00,
2013-01-23 02:58:00,7.8,2.1,30.30,SSW,196,0.0,2.0,77,0.00,,,0.00,VWS V14.01,2013-01-23 08:58:00,
2013-01-23 03:00:00,7.8,2.1,30.30,SSW,195,0.0,2.0,77,0.00,,,0.00,VWS V14.01,2013-01-23 09:00:00,
2013-01-23 03:05:00,7.8,2.4,30.30,SSW,196,0.0,0.0,78,0.00,,,0.00,VWS V14.01,2013-01-23 09:05:00,
2013-01-23 03:10:00,7.9,2.5,30.30,SSW,196,0.0,0.0,78,0.00,,,0.00,VWS V14.01,2013-01-23 09:10:00,
2013-01-23 03:15:00,8.0,2.8,30.30,SSW,196,0.0,0.0,79,0.00,,,0.00,VWS V14.01,2013-01-23 09:15:00,
2013-01-23 03:20:00,8.0,2.6,30.29,SSW,195,0.0,1.0,78,0.00,,,0.00,VWS V14.01,2013-01-23 09:20:00,
2013-01-23 03:26:00,8.0,2.8,30.29,SE,134,0.0,1.0,79,0.00,,,0.00,VWS V14.01,2013-01-23 09:26:00,
2013-01-23 03:30:00,8.1,3.0,30.29,SE,135,0.0,2.0,79,0.00,,,0.00,VWS V14.01,2013-01-23 09:30:00,
2013-01-23 03:31:00,8.1,3.0,30.29,SE,134,0.0,0.0,79,0.00,,,0.00,VWS V14.01,2013-01-23 09:31:00,
2013-01-23 03:36:00,8.1,3.0,30.29,SE,135,0.0,0.0,79,0.00,,,0.00,VWS V14.01,2013-01-23 09:36:00,
2013-01-23 03:41:00,8.2,3.0,30.29,SE,134,0.0,0.0,79,0.00,,,0.00,VWS V14.01,2013-01-23 09:41:00,
2013-01-23 03:47:00,8.2,3.0,30.29,SE,133,0.0,0.0,79,0.00,,,0.00,VWS V14.01,2013-01-23 09:47:00,
2013-01-23 03:52:00,8.2,3.3,30.28,SE,134,0.0,0.0,80,0.00,,,0.00,VWS V14.01,2013-01-23 09:52:00,
2013-01-23 03:57:00,8.3,3.4,30.29,SE,134,0.0,0.0,80,0.00,,,0.00,VWS V14.01,2013-01-23 09:57:00,
2013-01-23 04:00:00,8.3,3.4,30.29,SE,134,0.0,0.0,80,0.00,,,0.00,VWS V14.01,2013-01-23 10:00:00,
2013-01-23 04:03:00,8.4,3.5,30.28,SE,134,0.0,0.0,80,0.00,,,0.00,VWS V14.01,2013-01-23 10:03:00,
2013-01-23 04:08:00,8.4,3.5,30.29,SE,134,0.0,0.0,80,0.00,,,0.00,VWS V14.01,2013-01-23 10:08:00,
2013-01-23 04:13:00,8.5,3.9,30.28,SE,134,0.0,0.0,81,0.00,,,0.00,VWS V14.01,2013-01-23 10:13:00,
2013-01-23 04:18:00,8.5,3.9,30.28,SE,133,0.0,0.0,81,0.00,,,0.00,VWS V14.01,2013-01-23 10:18:00,
2013-01-23 04:24:00,8.6,4.0,30.28,SE,134,0.0,0.0,81,0.00,,,0.00,VWS V14.01,2013-01-23 10:24:00,
2013-01-23 04:29:00,8.6,4.0,30.27,SE,133,0.0,0.0,81,0.00,,,0.00,VWS V14.01,2013-01-23 10:29:00,
2013-01-23 04:30:00,8.6,4.0,30.27,SE,134,0.0,0.0,81,0.00,,,0.00,VWS V14.01,2013-01-23 10:30:00,
2013-01-23 04:34:00,8.6,4.0,30.27,SE,135,0.0,0.0,81,0.00,,,0.00,VWS V14.01,2013-01-23 10:34:00,
2013-01-23 04:40:00,8.7,4.1,30.27,SE,134,0.0,2.0,81,0.00,,,0.00,VWS V14.01,2013-01-23 10:40:00,
2013-01-23 04:45:00,8.7,4.1,30.26,SE,134,0.0,2.0,81,0.00,,,0.00,VWS V14.01,2013-01-23 10:45:00,
2013-01-23 04:50:00,8.7,4.3,30.26,SE,134,0.0,2.0,82,0.00,,,0.00,VWS V14.01,2013-01-23 10:50:00,
2013-01-23 04:56:00,8.8,4.4,30.26,SE,134,0.0,2.0,82,0.00,,,0.00,VWS V14.01,2013-01-23 10:56:00,
2013-01-23 05:00:00,8.9,4.5,30.26,SE,135,0.0,2.0,82,0.00,,,0.00,VWS V14.01,2013-01-23 11:00:00,
2013-01-23 05:01:00,8.8,4.4,30.26,SE,134,0.0,0.0,82,0.00,,,0.00,VWS V14.01,2013-01-23 11:01:00,
2013-01-23 05:07:00,8.9,4.5,30.26,SE,134,0.0,2.0,82,0.00,,,0.00,VWS V14.01,2013-01-23 11:07:00,
2013-01-23 05:12:00,8.9,4.5,30.26,SE,134,0.0,2.0,82,0.00,,,0.00,VWS V14.01,2013-01-23 11:12:00,
2013-01-23 05:18:00,9.0,4.6,30.26,SE,135,0.0,2.0,82,0.00,,,0.00,VWS V14.01,2013-01-23 11:18:00,
2013-01-23 05:23:00,9.0,4.6,30.26,SE,134,0.0,2.0,82,0.00,,,0.00,VWS V14.01,2013-01-23 11:23:00,
2013-01-23 05:28:00,9.0,4.6,30.26,SE,134,0.0,2.0,82,0.00,,,0.00,VWS V14.01,2013-01-23 11:28:00,
2013-01-23 05:30:00,9.0,4.9,30.26,SE,135,0.0,2.0,83,0.00,,,0.00,VWS V14.01,2013-01-23 11:30:00,
2013-01-23 05:33:00,9.1,5.0,30.26,SE,134,0.0,0.0,83,0.00,,,0.00,VWS V14.01,2013-01-23 11:33:00,
2013-01-23 05:38:00,9.1,5.0,30.26,SE,134,0.0,0.0,83,0.00,,,0.00,VWS V14.01,2013-01-23 11:38:00,
2013-01-23 05:44:00,9.2,5.1,30.26,SE,134,0.0,1.0,83,0.00,,,0.00,VWS V14.01,2013-01-23 11:44:00,
2013-01-23 05:49:00,9.2,5.1,30.26,SE,134,0.0,1.0,83,0.00,,,0.00,VWS V14.01,2013-01-23 11:49:00,
2013-01-23 05:54:00,9.2,5.1,30.26,South,183,3.0,4.0,83,0.00,,,0.00,VWS V14.01,2013-01-23 11:54:00,
2013-01-23 06:00:00,9.3,5.2,30.26,South,183,0.0,4.0,83,0.00,,,0.00,VWS V14.01,2013-01-23 12:00:00,
2013-01-23 06:05:00,9.4,5.3,30.26,South,182,0.0,0.0,83,0.00,,,0.00,VWS V14.01,2013-01-23 12:05:00,
2013-01-23 06:10:00,9.4,5.3,30.26,South,183,0.0,0.0,83,0.00,,,0.00,VWS V14.01,2013-01-23 12:10:00,
2013-01-23 06:15:00,9.4,5.3,30.26,South,182,0.0,0.0,83,0.00,,,0.00,VWS V14.01,2013-01-23 12:15:00,
2013-01-23 06:21:00,9.4,5.3,30.26,South,182,0.0,0.0,83,0.00,,,0.00,VWS V14.01,2013-01-23 12:21:00,
2013-01-23 06:26:00,9.4,5.3,30.26,South,182,0.0,0.0,83,0.00,,,0.00,VWS V14.01,2013-01-23 12:26:00,
2013-01-23 06:30:00,9.4,5.3,30.26,South,182,0.0,0.0,83,0.00,,,0.00,VWS V14.01,2013-01-23 12:30:00,
2013-01-23 06:32:00,9.4,5.3,30.26,South,183,0.0,0.0,83,0.00,,,0.00,VWS V14.01,2013-01-23 12:32:00,
2013-01-23 06:37:00,9.4,5.3,30.26,South,183,0.0,0.0,83,0.00,,,0.00,VWS V14.01,2013-01-23 12:37:00,
2013-01-23 06:43:00,9.3,5.2,30.26,South,182,0.0,0.0,83,0.00,,,0.00,VWS V14.01,2013-01-23 12:43:00,
2013-01-23 06:48:00,9.2,5.1,30.26,South,183,0.0,0.0,83,0.00,,,0.00,VWS V14.01,2013-01-23 12:48:00,
2013-01-23 06:53:00,9.1,5.0,30.26,South,183,0.0,0.0,83,0.00,,,0.00,VWS V14.01,2013-01-23 12:53:00,
2013-01-23 06:59:00,9.1,5.0,30.26,South,183,0.0,0.0,83,0.00,,,0.00,VWS V14.01,2013-01-23 12:59:00,
2013-01-23 07:00:00,9.1,5.0,30.26,South,182,0.0,0.0,83,0.00,,,0.00,VWS V14.01,2013-01-23 13:00:00,
2013-01-23 07:04:00,9.1,5.0,30.26,South,182,0.0,0.0,83,0.00,,,0.00,VWS V14.01,2013-01-23 13:04:00,
2013-01-23 07:09:00,9.1,5.0,30.27,South,182,0.0,0.0,83,0.00,,,0.00,VWS V14.01,2013-01-23 13:09:00,
2013-01-23 07:14:00,9.1,5.0,30.26,South,182,0.0,0.0,83,0.00,,,0.00,VWS V14.01,2013-01-23 13:14:00,
2013-01-23 07:20:00,9.1,5.0,30.26,South,182,0.0,0.0,83,0.00,,,0.00,VWS V14.01,2013-01-23 13:20:00,
2013-01-23 07:25:00,9.0,4.9,30.26,South,182,0.0,0.0,83,0.00,,,0.00,VWS V14.01,2013-01-23 13:25:00,
2013-01-23 07:30:00,9.0,5.2,30.26,South,183,0.0,0.0,84,0.00,,,0.00,VWS V14.01,2013-01-23 13:30:00,
2013-01-23 07:35:00,8.9,5.1,30.27,South,182,0.0,0.0,84,0.00,,,0.00,VWS V14.01,2013-01-23 13:35:00,
2013-01-23 07:40:00,8.8,5.0,30.27,South,183,0.0,1.0,84,0.00,,,0.00,VWS V14.01,2013-01-23 13:40:00,
2013-01-23 07:46:00,8.7,4.9,30.26,South,183,0.0,1.0,84,0.00,,,0.00,VWS V14.01,2013-01-23 13:46:00,
2013-01-23 07:51:00,8.5,4.7,30.27,South,182,0.0,1.0,84,0.00,,,0.00,VWS V14.01,2013-01-23 13:51:00,
2013-01-23 07:56:00,8.3,4.5,30.27,South,182,0.0,1.0,84,0.00,,,0.00,VWS V14.01,2013-01-23 13:56:00,
2013-01-23 08:00:00,8.2,4.1,30.27,South,183,0.0,1.0,83,0.00,,,0.00,VWS V14.01,2013-01-23 14:00:00,
2013-01-23 08:01:00,8.1,4.0,30.27,South,182,0.0,0.0,83,0.00,,,0.00,VWS V14.01,2013-01-23 14:01:00,
2013-01-23 08:06:00,8.0,4.2,30.26,South,183,0.0,0.0,84,0.00,,,0.00,VWS V14.01,2013-01-23 14:06:00,
2013-01-23 08:11:00,7.8,4.0,30.26,South,183,0.0,0.0,84,0.00,,,0.00,VWS V14.01,2013-01-23 14:11:00,
2013-01-23 08:17:00,7.7,3.9,30.26,South,183,0.0,0.0,84,0.00,,,0.00,VWS V14.01,2013-01-23 14:17:00,
2013-01-23 08:22:00,7.8,4.0,30.26,South,184,0.0,2.0,84,0.00,,,0.00,VWS V14.01,2013-01-23 14:22:00,
2013-01-23 08:27:00,7.9,4.1,30.26,South,184,0.0,2.0,84,0.00,,,0.00,VWS V14.01,2013-01-23 14:27:00,
2013-01-23 08:30:00,8.1,4.3,30.26,South,184,0.0,3.0,84,0.00,,,0.00,VWS V14.01,2013-01-23 14:30:00,
2013-01-23 08:32:00,8.1,4.3,30.26,South,184,0.0,2.0,84,0.00,,,0.00,VWS V14.01,2013-01-23 14:32:00,
2013-01-23 08:37:00,8.3,4.5,30.26,South,184,0.0,3.0,84,0.00,,,0.00,VWS V14.01,2013-01-23 14:37:00,
2013-01-23 08:42:00,8.5,4.7,30.26,South,184,0.0,3.0,84,0.00,,,0.00,VWS V14.01,2013-01-23 14:42:00,
2013-01-23 08:47:00,8.7,4.9,30.26,WSW,245,0.0,3.0,84,0.00,,,0.00,VWS V14.01,2013-01-23 14:47:00,
2013-01-23 08:53:00,9.0,5.2,30.26,West,262,0.0,3.0,84,0.00,,,0.00,VWS V14.01,2013-01-23 14:53:00,
2013-01-23 08:58:00,9.3,5.4,30.27,West,274,0.0,4.0,84,0.00,,,0.00,VWS V14.01,2013-01-23 14:58:00,
2013-01-23 09:00:00,9.4,5.6,30.27,West,275,0.0,8.0,84,0.00,,,0.00,VWS V14.01,2013-01-23 15:00:00,
2013-01-23 09:03:00,9.6,5.8,30.27,West,275,2.0,2.0,84,0.00,,,0.00,VWS V14.01,2013-01-23 15:03:00,
2013-01-23 09:08:00,9.8,5.9,30.27,WNW,285,1.0,4.0,84,0.00,,,0.00,VWS V14.01,2013-01-23 15:08:00,
2013-01-23 09:13:00,10.0,6.1,30.27,WNW,288,1.0,5.0,84,0.00,,,0.00,VWS V14.01,2013-01-23 15:13:00,
2013-01-23 09:18:00,10.2,6.3,30.27,West,262,2.0,6.0,84,0.00,,,0.00,VWS V14.01,2013-01-23 15:18:00,
2013-01-23 09:23:00,10.3,6.4,30.27,West,280,2.0,6.0,84,0.00,,,0.00,VWS V14.01,2013-01-23 15:23:00,
2013-01-23 09:29:00,10.5,6.6,30.27,West,262,2.0,6.0,84,0.00,,,0.00,VWS V14.01,2013-01-23 15:29:00,
2013-01-23 09:30:00,10.5,6.4,30.28,WSW,254,1.0,6.0,83,0.00,,,0.00,VWS V14.01,2013-01-23 15:30:00,
2013-01-23 09:34:00,10.7,6.6,30.28,WNW,300,1.0,7.0,83,0.00,,,0.00,VWS V14.01,2013-01-23 15:34:00,
2013-01-23 09:39:00,10.7,6.6,30.28,West,280,0.0,7.0,83,0.00,,,0.00,VWS V14.01,2013-01-23 15:39:00,
2013-01-23 09:44:00,10.8,8.9,30.28,WNW,284,2.0,7.0,92,0.00,,,0.00,VWS V14.01,2013-01-23 15:44:00,
2013-01-23 09:49:00,11.0,6.9,30.28,West,263,0.0,8.0,83,0.00,,,0.00,VWS V14.01,2013-01-23 15:49:00,
2013-01-23 09:54:00,11.2,7.1,30.28,West,277,2.0,8.0,83,0.00,,,0.00,VWS V14.01,2013-01-23 15:54:00,
2013-01-23 09:59:00,11.5,7.3,30.29,WNW,285,6.0,11.0,83,0.00,,,0.00,VWS V14.01,2013-01-23 15:59:00,
2013-01-23 10:00:00,11.6,7.4,30.29,WNW,301,2.0,11.0,83,0.00,,,0.00,VWS V14.01,2013-01-23 16:00:00,
2013-01-23 10:04:00,11.8,7.4,30.29,WNW,300,5.0,8.0,82,0.00,,,0.00,VWS V14.01,2013-01-23 16:04:00,
2013-01-23 10:10:00,12.2,7.8,30.29,West,268,4.0,12.0,82,0.00,,,0.00,VWS V14.01,2013-01-23 16:10:00,
2013-01-23 10:15:00,12.4,7.7,30.29,West,279,7.0,12.0,81,0.00,,,0.00,VWS V14.01,2013-01-23 16:15:00,
2013-01-23 10:20:00,12.4,7.4,30.29,NW,306,3.0,13.0,80,0.00,,,0.00,VWS V14.01,2013-01-23 16:20:00,
2013-01-23 10:25:00,12.6,7.6,30.29,West,273,1.0,13.0,80,0.00,,,0.00,VWS V14.01,2013-01-23 16:25:00,
2013-01-23 10:30:00,12.6,7.3,30.29,WNW,298,7.0,13.0,79,0.00,,,0.00,VWS V14.01,2013-01-23 16:30:00,
2013-01-23 10:31:00,12.6,7.3,30.29,WNW,297,3.0,7.0,79,0.00,,,0.00,VWS V14.01,2013-01-23 16:31:00,
2013-01-23 10:36:00,12.6,7.3,30.30,West,261,5.0,10.0,79,0.00,,,0.00,VWS V14.01,2013-01-23 16:36:00,
2013-01-23 10:41:00,12.7,7.4,30.30,WNW,296,1.0,16.0,79,0.00,,,0.00,VWS V14.01,2013-01-23 16:41:00,
2013-01-23 10:46:00,13.0,7.4,30.30,WNW,284,9.0,16.0,78,0.00,,,0.00,VWS V14.01,2013-01-23 16:46:00,
2013-01-23 10:51:00,13.2,7.6,30.30,WNW,282,6.0,16.0,78,0.00,,,0.00,VWS V14.01,2013-01-23 16:51:00,
2013-01-23 10:56:00,13.3,7.7,30.30,WNW,283,4.0,16.0,78,0.00,,,0.00,VWS V14.01,2013-01-23 16:56:00,
2013-01-23 11:00:00,13.3,7.4,30.30,West,273,2.0,16.0,77,0.00,,,0.00,VWS V14.01,2013-01-23 17:00:00,
2013-01-23 11:02:00,13.3,7.4,30.30,West,277,2.0,3.0,77,0.00,,,0.00,VWS V14.01,2013-01-23 17:02:00,
2013-01-23 11:07:00,13.3,7.4,30.30,WNW,294,5.0,13.0,77,0.00,,,0.00,VWS V14.01,2013-01-23 17:07:00,
2013-01-23 11:12:00,13.2,7.3,30.30,WNW,283,9.0,13.0,77,0.00,,,0.00,VWS V14.01,2013-01-23 17:12:00,
2013-01-23 11:17:00,13.5,7.7,30.30,West,277,7.0,16.0,77,0.00,,,0.00,VWS V14.01,2013-01-23 17:17:00,
2013-01-23 11:22:00,13.7,7.8,30.30,West,280,6.0,16.0,77,0.00,,,0.00,VWS V14.01,2013-01-23 17:22:00,
2013-01-23 11:28:00,13.7,7.6,30.30,WNW,289,6.0,16.0,76,0.00,,,0.00,VWS V14.01,2013-01-23 17:28:00,
2013-01-23 11:30:00,13.7,7.6,30.30,West,269,13.0,16.0,76,0.00,,,0.00,VWS V14.01,2013-01-23 17:30:00,
2013-01-23 11:33:00,13.7,7.6,30.30,WNW,297,7.0,13.0,76,0.00,,,0.00,VWS V14.01,2013-01-23 17:33:00,
2013-01-23 11:38:00,13.8,7.4,30.30,West,281,15.0,20.0,75,0.00,,,0.00,VWS V14.01,2013-01-23 17:38:00,
2013-01-23 11:43:00,13.8,7.1,30.30,NW,309,10.0,20.0,74,0.00,,,0.00,VWS V14.01,2013-01-23 17:43:00,
2013-01-23 11:48:00,14.0,7.2,30.30,WNW,283,4.0,20.0,74,0.00,,,0.00,VWS V14.01,2013-01-23 17:48:00,
2013-01-23 11:54:00,14.4,7.3,30.30,NW,305,6.0,20.0,73,0.00,,,0.00,VWS V14.01,2013-01-23 17:54:00,
2013-01-23 11:59:00,14.3,6.6,30.30,WNW,285,14.0,22.0,71,0.00,,,0.00,VWS V14.01,2013-01-23 17:59:00,
2013-01-23 12:00:00,14.1,6.1,30.30,NW,321,15.0,22.0,70,0.00,,,0.00,VWS V14.01,2013-01-23 18:00:00,
2013-01-23 12:04:00,14.1,6.1,30.30,WNW,294,7.0,18.0,70,0.00,,,0.00,VWS V14.01,2013-01-23 18:04:00,
2013-01-23 12:09:00,13.8,5.5,30.30,NW,306,15.0,24.0,69,0.00,,,0.00,VWS V14.01,2013-01-23 18:09:00,
2013-01-23 12:14:00,13.6,5.3,30.31,WNW,299,16.0,24.0,69,0.00,,,0.00,VWS V14.01,2013-01-23 18:14:00,
2013-01-23 12:19:00,13.4,5.1,30.31,WNW,296,14.0,24.0,69,0.00,,,0.00,VWS V14.01,2013-01-23 18:19:00,
2013-01-23 12:25:00,13.2,4.9,30.31,WNW,282,16.0,24.0,69,0.00,,,0.00,VWS V14.01,2013-01-23 18:25:00,
2013-01-23 12:30:00,13.1,5.2,30.31,WNW,289,6.0,24.0,70,0.00,,,0.00,VWS V14.01,2013-01-23 18:30:00,
2013-01-23 12:35:00,13.1,5.2,30.31,WNW,299,13.0,20.0,70,0.00,,,0.00,VWS V14.01,2013-01-23 18:35:00,
2013-01-23 12:40:00,13.0,5.1,30.30,WNW,297,7.0,21.0,70,0.00,,,0.00,VWS V14.01,2013-01-23 18:40:00,
2013-01-23 12:45:00,13.0,5.1,30.31,NW,305,12.0,22.0,70,0.00,,,0.00,VWS V14.01,2013-01-23 18:45:00,
2013-01-23 12:50:00,12.6,4.4,30.30,NW,306,13.0,22.0,69,0.00,,,0.00,VWS V14.01,2013-01-23 18:50:00,
2013-01-23 12:55:00,12.6,4.7,30.30,WNW,283,6.0,22.0,70,0.00,,,0.00,VWS V14.01,2013-01-23 18:55:00,
2013-01-23 13:00:00,12.6,5.0,30.31,WNW,297,13.0,22.0,71,0.00,,,0.00,VWS V14.01,2013-01-23 19:00:00,
2013-01-23 13:01:00,12.6,5.0,30.31,NW,314,14.0,14.0,71,0.00,,,0.00,VWS V14.01,2013-01-23 19:01:00,
2013-01-23 13:06:00,12.6,5.0,30.30,NW,312,16.0,21.0,71,0.00,,,0.00,VWS V14.01,2013-01-23 19:06:00,
2013-01-23 13:11:00,12.6,5.0,30.30,NNW,336,15.0,22.0,71,0.00,,,0.00,VWS V14.01,2013-01-23 19:11:00,
2013-01-23 13:16:00,12.9,5.6,30.31,NNW,331,15.0,22.0,72,0.00,,,0.00,VWS V14.01,2013-01-23 19:16:00,
2013-01-23 13:22:00,12.8,4.6,30.31,WNW,296,9.0,22.0,69,0.00,,,0.00,VWS V14.01,2013-01-23 19:22:00,
2013-01-23 13:27:00,12.5,2.3,30.31,NW,314,6.0,26.0,63,0.00,,,0.00,VWS V14.01,2013-01-23 19:27:00,
2013-01-23 13:30:00,12.5,2.3,30.31,WNW,289,13.0,26.0,63,0.00,,,0.00,VWS V14.01,2013-01-23 19:30:00,
2013-01-23 13:32:00,12.6,2.4,30.31,WNW,287,12.0,14.0,63,0.00,,,0.00,VWS V14.01,2013-01-23 19:32:00,
2013-01-23 13:37:00,12.4,1.9,30.32,WNW,303,7.0,24.0,62,0.00,,,0.00,VWS V14.01,2013-01-23 19:37:00,
2013-01-23 13:43:00,12.2,1.7,30.32,WNW,296,3.0,24.0,62,0.00,,,0.00,VWS V14.01,2013-01-23 19:43:00,
2013-01-23 13:48:00,12.1,1.6,30.33,NNW,333,13.0,24.0,62,0.00,,,0.00,VWS V14.01,2013-01-23 19:48:00,
2013-01-23 13:53:00,12.1,1.6,30.33,WNW,300,10.0,24.0,62,0.00,,,0.00,VWS V14.01,2013-01-23 19:53:00,
2013-01-23 13:58:00,11.8,1.0,30.33,WNW,294,6.0,24.0,61,0.00,,,0.00,VWS V14.01,2013-01-23 19:58:00,
2013-01-23 14:00:00,11.8,1.3,30.34,NW,313,19.0,24.0,62,0.00,,,0.00,VWS V14.01,2013-01-23 20:00:00,
2013-01-23 14:04:00,11.4,0.6,30.33,NW,313,5.0,21.0,61,0.00,,,0.00,VWS V14.01,2013-01-23 20:04:00,
2013-01-23 14:09:00,11.1,0.3,30.34,WNW,287,9.0,24.0,61,0.00,,,0.00,VWS V14.01,2013-01-23 20:09:00,
2013-01-23 14:14:00,10.9,0.1,30.34,NW,306,27.0,27.0,61,0.00,,,0.00,VWS V14.01,2013-01-23 20:14:00,
2013-01-23 14:19:00,10.6,-0.5,30.34,NNW,328,10.0,27.0,60,0.00,,,0.00,VWS V14.01,2013-01-23 20:19:00,
2013-01-23 14:24:00,10.7,-0.4,30.35,NW,312,9.0,27.0,60,0.00,,,0.00,VWS V14.01,2013-01-23 20:24:00,
2013-01-23 14:29:00,10.5,-1.0,30.35,NNW,333,21.0,27.0,59,0.00,,,0.00,VWS V14.01,2013-01-23 20:29:00,
2013-01-23 14:30:00,10.3,-1.5,30.35,WNW,283,5.0,27.0,58,0.00,,,0.00,VWS V14.01,2013-01-23 20:30:00,
2013-01-23 14:35:00,10.0,-1.8,30.36,NW,306,4.0,22.0,58,0.00,,,0.00,VWS V14.01,2013-01-23 20:35:00,
2013-01-23 14:40:00,10.1,-1.7,30.36,NW,304,30.0,30.0,58,0.00,,,0.00,VWS V14.01,2013-01-23 20:40:00,
2013-01-23 14:45:00,9.8,-2.4,30.37,WNW,283,10.0,30.0,57,0.00,,,0.00,VWS V14.01,2013-01-23 20:45:00,
2013-01-23 14:50:00,9.7,-2.5,30.37,NW,312,15.0,30.0,57,0.00,,,0.00,VWS V14.01,2013-01-23 20:50:00,
2013-01-23 14:55:00,9.6,-2.6,30.38,WNW,287,8.0,30.0,57,0.00,,,0.00,VWS V14.01,2013-01-23 20:55:00,
2013-01-23 15:00:00,9.3,-2.8,30.38,NW,316,8.0,30.0,57,0.00,,,0.00,VWS V14.01,2013-01-23 21:00:00,
2013-01-23 15:06:00,8.9,-3.6,30.39,WNW,300,16.0,23.0,56,0.00,,,0.00,VWS V14.01,2013-01-23 21:06:00,
2013-01-23 15:11:00,8.7,-3.4,30.39,NW,314,11.0,23.0,57,0.00,,,0.00,VWS V14.01,2013-01-23 21:11:00,
2013-01-23 15:16:00,8.6,-3.5,30.40,WNW,292,9.0,29.0,57,0.00,,,0.00,VWS V14.01,2013-01-23 21:16:00,
2013-01-23 15:22:00,8.5,-3.2,30.40,NW,316,20.0,29.0,58,0.00,,,0.00,VWS V14.01,2013-01-23 21:22:00,
2013-01-23 15:27:00,8.4,-3.3,30.40,WNW,291,3.0,29.0,58,0.00,,,0.00,VWS V14.01,2013-01-23 21:27:00,
2013-01-23 15:30:00,8.2,-3.5,30.41,NW,325,14.0,29.0,58,0.00,,,0.00,VWS V14.01,2013-01-23 21:30:00,
2013-01-23 15:32:00,8.2,-3.5,30.41,NW,309,15.0,26.0,58,0.00,,,0.00,VWS V14.01,2013-01-23 21:32:00,
2013-01-23 15:38:00,8.0,-3.7,30.41,NW,304,9.0,26.0,58,0.00,,,0.00,VWS V14.01,2013-01-23 21:38:00,
2013-01-23 15:43:00,7.8,-3.9,30.42,West,260,14.0,26.0,58,0.00,,,0.00,VWS V14.01,2013-01-23 21:43:00,
2013-01-23 15:48:00,7.6,-3.7,30.42,WNW,302,7.0,26.0,59,0.00,,,0.00,VWS V14.01,2013-01-23 21:48:00,
2013-01-23 15:53:00,7.5,-3.5,30.42,NW,304,9.0,26.0,60,0.00,,,0.00,VWS V14.01,2013-01-23 21:53:00,
2013-01-23 15:58:00,7.3,-4.7,30.43,NNW,347,5.0,26.0,57,0.00,,,0.00,VWS V14.01,2013-01-23 21:58:00,
2013-01-23 16:00:00,7.2,-4.8,30.43,NNW,340,11.0,26.0,57,0.00,,,0.00,VWS V14.01,2013-01-23 22:00:00,
2013-01-23 16:04:00,7.1,-4.9,30.43,NNW,328,3.0,20.0,57,0.00,,,0.00,VWS V14.01,2013-01-23 22:04:00,
2013-01-23 16:09:00,6.7,-5.7,30.44,WNW,298,7.0,23.0,56,0.00,,,0.00,VWS V14.01,2013-01-23 22:09:00,
2013-01-23 16:14:00,6.4,-5.9,30.45,NW,310,18.0,23.0,56,0.00,,,0.00,VWS V14.01,2013-01-23 22:14:00,
2013-01-23 16:19:00,6.1,-6.6,30.45,WNW,289,10.0,24.0,55,0.00,,,0.00,VWS V14.01,2013-01-23 22:19:00,
2013-01-23 16:24:00,5.9,-6.4,30.45,NW,318,6.0,24.0,56,0.00,,,0.00,VWS V14.01,2013-01-23 22:24:00,
2013-01-23 16:30:00,5.8,-6.5,30.45,NW,312,14.0,24.0,56,0.00,,,0.00,VWS V14.01,2013-01-23 22:30:00,
2013-01-23 16:35:00,5.6,-6.7,30.46,WNW,289,9.0,20.0,56,0.00,,,0.00,VWS V14.01,2013-01-23 22:35:00,
2013-01-23 16:41:00,5.5,-6.4,30.47,NW,305,4.0,20.0,57,0.00,,,0.00,VWS V14.01,2013-01-23 22:41:00,
2013-01-23 16:46:00,5.3,-7.0,30.47,WNW,297,5.0,20.0,56,0.00,,,0.00,VWS V14.01,2013-01-23 22:46:00,
2013-01-23 16:51:00,5.2,-6.7,30.47,NW,311,11.0,20.0,57,0.00,,,0.00,VWS V14.01,2013-01-23 22:51:00,
2013-01-23 16:57:00,5.0,-4.5,30.48,NW,324,5.0,20.0,64,0.00,,,0.00,VWS V14.01,2013-01-23 22:57:00,
2013-01-23 17:00:00,4.9,-6.6,30.49,NNW,329,2.0,20.0,58,0.00,,,0.00,VWS V14.01,2013-01-23 23:00:00,
2013-01-23 17:02:00,4.9,-6.6,30.48,NW,306,7.0,14.0,58,0.00,,,0.00,VWS V14.01,2013-01-23 23:02:00,
2013-01-23 17:07:00,4.8,-7.4,30.49,NW,318,2.0,18.0,56,0.00,,,0.00,VWS V14.01,2013-01-23 23:07:00,
2013-01-23 17:12:00,4.6,-7.6,30.50,WNW,301,18.0,20.0,56,0.00,,,0.00,VWS V14.01,2013-01-23 23:12:00,
2013-01-23 17:17:00,4.5,-8.1,30.51,NW,318,9.0,21.0,55,0.00,,,0.00,VWS V14.01,2013-01-23 23:17:00,
2013-01-23 17:22:00,4.4,-8.2,30.50,NW,321,4.0,21.0,55,0.00,,,0.00,VWS V14.01,2013-01-23 23:22:00,
2013-01-23 17:28:00,4.2,-8.0,30.51,NW,312,1.0,21.0,56,0.00,,,0.00,VWS V14.01,2013-01-23 23:28:00,
2013-01-23 17:30:00,4.1,-8.1,30.51,WNW,289,2.0,21.0,56,0.00,,,0.00,VWS V14.01,2013-01-23 23:30:00,
2013-01-23 17:33:00,4.0,-8.2,30.51,WNW,301,5.0,10.0,56,0.00,,,0.00,VWS V14.01,2013-01-23 23:33:00,
2013-01-23 17:38:00,3.9,-7.9,30.51,WNW,288,6.0,16.0,57,0.00,,,0.00,VWS V14.01,2013-01-23 23:38:00,
2013-01-23 17:43:00,3.8,-8.0,30.51,WNW,303,3.0,16.0,57,0.00,,,0.00,VWS V14.01,2013-01-23 23:43:00,
2013-01-23 17:48:00,3.7,-8.1,30.53,NW,312,3.0,16.0,57,0.00,,,0.00,VWS V14.01,2013-01-23 23:48:00,
2013-01-23 17:53:00,3.5,-8.3,30.53,NNW,347,2.0,16.0,57,0.00,,,0.00,VWS V14.01,2013-01-23 23:53:00,
2013-01-23 17:58:00,3.4,-8.8,30.54,NNW,332,8.0,18.0,56,0.00,,,0.00,VWS V14.01,2013-01-23 23:58:00,
2013-01-23 18:00:00,3.3,-8.9,30.54,NNW,334,6.0,18.0,56,0.00,,,0.00,VWS V14.01,2013-01-24 00:00:00,
2013-01-23 18:03:00,3.2,-8.9,30.54,WNW,298,6.0,13.0,56,0.00,,,0.00,VWS V14.01,2013-01-24 00:03:00,
2013-01-23 18:09:00,3.2,-8.9,30.54,NNW,335,16.0,18.0,56,0.00,,,0.00,VWS V14.01,2013-01-24 00:09:00,
2013-01-23 18:14:00,3.1,-9.0,30.54,NW,321,11.0,18.0,56,0.00,,,0.00,VWS V14.01,2013-01-24 00:14:00,
2013-01-23 18:19:00,2.9,-9.2,30.54,NW,320,7.0,18.0,56,0.00,,,0.00,VWS V14.01,2013-01-24 00:19:00,
2013-01-23 18:24:00,2.8,-9.0,30.54,NW,323,6.0,18.0,57,0.00,,,0.00,VWS V14.01,2013-01-24 00:24:00,
2013-01-23 18:29:00,2.7,-9.1,30.54,NNW,329,12.0,18.0,57,0.00,,,0.00,VWS V14.01,2013-01-24 00:29:00,
2013-01-23 18:30:00,2.7,-9.1,30.54,NW,321,12.0,18.0,57,0.00,,,0.00,VWS V14.01,2013-01-24 00:30:00,
2013-01-23 18:34:00,2.6,-9.1,30.55,NW,314,5.0,12.0,57,0.00,,,0.00,VWS V14.01,2013-01-24 00:34:00,
2013-01-23 18:39:00,2.4,-9.0,30.55,NW,308,7.0,12.0,58,0.00,,,0.00,VWS V14.01,2013-01-24 00:39:00,
2013-01-23 18:45:00,2.3,-9.1,30.56,North,359,4.0,13.0,58,0.00,,,0.00,VWS V14.01,2013-01-24 00:45:00,
2013-01-23 18:50:00,2.3,-9.8,30.56,North,349,9.0,17.0,56,0.00,,,0.00,VWS V14.01,2013-01-24 00:50:00,
2013-01-23 18:55:00,2.3,-10.2,30.56,NNW,341,7.0,19.0,55,0.00,,,0.00,VWS V14.01,2013-01-24 00:55:00,
2013-01-23 19:00:00,2.2,-10.2,30.57,NW,319,4.0,19.0,55,0.00,,,0.00,VWS V14.01,2013-01-24 01:00:00,
2013-01-23 19:05:00,2.0,-10.1,30.56,North,359,7.0,12.0,56,0.00,,,0.00,VWS V14.01,2013-01-24 01:05:00,
2013-01-23 19:11:00,1.8,-10.3,30.57,NNW,332,9.0,12.0,56,0.00,,,0.00,VWS V14.01,2013-01-24 01:11:00,
2013-01-23 19:16:00,1.7,-10.4,30.57,NNW,328,7.0,17.0,56,0.00,,,0.00,VWS V14.01,2013-01-24 01:16:00,
2013-01-23 19:21:00,1.5,-10.9,30.58,NNW,333,10.0,18.0,55,0.00,,,0.00,VWS V14.01,2013-01-24 01:21:00,
2013-01-23 19:26:00,1.4,-10.6,30.58,NNW,346,7.0,18.0,56,0.00,,,0.00,VWS V14.01,2013-01-24 01:26:00,
2013-01-23 19:30:00,1.3,-10.7,30.58,North,2,7.0,18.0,56,0.00,,,0.00,VWS V14.01,2013-01-24 01:30:00,
2013-01-23 19:31:00,1.3,-10.7,30.58,NNW,339,5.0,10.0,56,0.00,,,0.00,VWS V14.01,2013-01-24 01:31:00,
2013-01-23 19:36:00,1.2,-10.8,30.58,NNW,328,2.0,10.0,56,0.00,,,0.00,VWS V14.01,2013-01-24 01:36:00,
2013-01-23 19:42:00,1.1,-10.6,30.59,NW,326,2.0,10.0,57,0.00,,,0.00,VWS V14.01,2013-01-24 01:42:00,
2013-01-23 19:47:00,0.9,-10.8,30.59,North,351,5.0,12.0,57,0.00,,,0.00,VWS V14.01,2013-01-24 01:47:00,
2013-01-23 19:52:00,0.8,-11.2,30.59,North,1,5.0,17.0,56,0.00,,,0.00,VWS V14.01,2013-01-24 01:52:00,
2013-01-23 19:57:00,0.7,-11.3,30.59,NNW,348,11.0,17.0,56,0.00,,,0.00,VWS V14.01,2013-01-24 01:57:00,
2013-01-23 20:00:00,0.6,-11.4,30.60,North,350,7.0,17.0,56,0.00,,,0.00,VWS V14.01,2013-01-24 02:00:00,
2013-01-23 20:02:00,0.6,-11.4,30.59,NW,320,8.0,18.0,56,0.00,,,0.00,VWS V14.01,2013-01-24 02:02:00,
2013-01-23 20:07:00,0.5,-11.5,30.60,NNE,17,7.0,18.0,56,0.00,,,0.00,VWS V14.01,2013-01-24 02:07:00,
2013-01-23 20:12:00,0.3,-11.7,30.60,North,356,6.0,18.0,56,0.00,,,0.00,VWS V14.01,2013-01-24 02:12:00,
2013-01-23 20:17:00,0.2,-11.4,30.60,NNW,337,7.0,18.0,57,0.00,,,0.00,VWS V14.01,2013-01-24 02:17:00,
2013-01-23 20:23:00,0.1,-11.5,30.61,NNE,20,7.0,18.0,57,0.00,,,0.00,VWS V14.01,2013-01-24 02:23:00,
2013-01-23 20:28:00,-0.1,-11.6,30.62,NNW,348,4.0,18.0,57,0.00,,,0.00,VWS V14.01,2013-01-24 02:28:00,
2013-01-23 20:30:00,-0.1,-11.7,30.62,NNE,29,8.0,18.0,57,0.00,,,0.00,VWS V14.01,2013-01-24 02:30:00,
2013-01-23 20:33:00,-0.2,-11.8,30.62,NW,325,4.0,12.0,57,0.00,,,0.00,VWS V14.01,2013-01-24 02:33:00,
2013-01-23 20:39:00,-0.3,-11.9,30.62,NNW,333,4.0,4.0,57,0.00,,,0.00,VWS V14.01,2013-01-24 02:39:00,
2013-01-23 20:44:00,-0.5,-12.1,30.63,NNW,333,3.0,14.0,57,0.00,,,0.00,VWS V14.01,2013-01-24 02:44:00,
2013-01-23 20:50:00,-0.6,-12.2,30.63,NNE,21,11.0,15.0,57,0.00,,,0.00,VWS V14.01,2013-01-24 02:50:00,
2013-01-23 20:55:00,-0.7,-12.3,30.63,NNW,331,8.0,16.0,57,0.00,,,0.00,VWS V14.01,2013-01-24 02:55:00,
2013-01-23 21:00:00,-0.9,-12.5,30.63,NNW,343,9.0,16.0,57,0.00,,,0.00,VWS V14.01,2013-01-24 03:00:00,
2013-01-23 21:05:00,-1.0,-12.6,30.63,NNW,335,6.0,10.0,57,0.00,,,0.00,VWS V14.01,2013-01-24 03:05:00,
2013-01-23 21:10:00,-1.2,-12.7,30.63,NNE,15,13.0,15.0,57,0.00,,,0.00,VWS V14.01,2013-01-24 03:10:00,
2013-01-23 21:15:00,-1.3,-12.8,30.63,NNE,16,5.0,15.0,57,0.00,,,0.00,VWS V14.01,2013-01-24 03:15:00,
2013-01-23 21:21:00,-1.4,-12.9,30.64,NNW,347,7.0,15.0,57,0.00,,,0.00,VWS V14.01,2013-01-24 03:21:00,
2013-01-23 21:26:00,-1.4,-12.9,30.64,North,358,3.0,15.0,57,0.00,,,0.00,VWS V14.01,2013-01-24 03:26:00,
2013-01-23 21:31:00,-1.5,-12.7,30.64,NNW,343,3.0,5.0,58,0.00,,,0.00,VWS V14.01,2013-01-24 03:31:00,
2013-01-23 21:36:00,-1.6,-12.4,30.64,NNW,328,10.0,10.0,59,0.00,,,0.00,VWS V14.01,2013-01-24 03:36:00,
2013-01-23 21:41:00,-1.8,-12.6,30.64,North,360,5.0,10.0,59,0.00,,,0.00,VWS V14.01,2013-01-24 03:41:00,
2013-01-23 21:46:00,-1.9,-12.7,30.64,NNW,346,5.0,10.0,59,0.00,,,0.00,VWS V14.01,2013-01-24 03:46:00,
2013-01-23 21:51:00,-2.0,-12.8,30.65,North,359,1.0,11.0,59,0.00,,,0.00,VWS V14.01,2013-01-24 03:51:00,
2013-01-23 21:56:00,-2.1,-12.9,30.65,North,3,5.0,13.0,59,0.00,,,0.00,VWS V14.01,2013-01-24 03:56:00,
2013-01-23 22:02:00,-2.2,-13.0,30.66,North,11,13.0,13.0,59,0.00,,,0.00,VWS V14.01,2013-01-24 04:02:00,
2013-01-23 22:07:00,-2.2,-13.0,30.66,North,358,5.0,13.0,59,0.00,,,0.00,VWS V14.01,2013-01-24 04:07:00,
2013-01-23 22:12:00,-2.4,-13.2,30.66,North,356,6.0,13.0,59,0.00,,,0.00,VWS V14.01,2013-01-24 04:12:00,
2013-01-23 22:17:00,-2.5,-13.3,30.67,North,4,4.0,13.0,59,0.00,,,0.00,VWS V14.01,2013-01-24 04:17:00,
2013-01-23 22:22:00,-2.6,-13.0,30.68,NW,325,7.0,13.0,60,0.00,,,0.00,VWS V14.01,2013-01-24 04:22:00,
2013-01-23 22:27:00,-2.7,-12.8,30.68,North,358,6.0,13.0,61,0.00,,,0.00,VWS V14.01,2013-01-24 04:27:00,
2013-01-23 22:33:00,-2.8,-12.9,30.68,North,352,3.0,7.0,61,0.00,,,0.00,VWS V14.01,2013-01-24 04:33:00,
2013-01-23 22:38:00,-2.9,-13.0,30.68,NNW,337,6.0,13.0,61,0.00,,,0.00,VWS V14.01,2013-01-24 04:38:00,
2013-01-23 22:43:00,-3.1,-13.2,30.68,North,2,8.0,13.0,61,0.00,,,0.00,VWS V14.01,2013-01-24 04:43:00,
2013-01-23 22:48:00,-3.2,-13.6,30.68,NNW,343,10.0,13.0,60,0.00,,,0.00,VWS V14.01,2013-01-24 04:48:00,
2013-01-23 22:53:00,-3.4,-13.8,30.68,North,352,2.0,13.0,60,0.00,,,0.00,VWS V14.01,2013-01-24 04:53:00,
2013-01-23 22:59:00,-3.5,-13.9,30.69,NNW,343,5.0,13.0,60,0.00,,,0.00,VWS V14.01,2013-01-24 04:59:00,
2013-01-23 23:00:00,-3.5,-13.9,30.69,NNW,331,0.0,13.0,60,0.00,,,0.00,VWS V14.01,2013-01-24 05:00:00,
2013-01-23 23:01:00,-3.5,-13.9,30.69,NNW,331,0.0,13.0,60,0.00,,,0.00,VWS V14.01,2013-01-24 05:01:00,
2013-01-23 23:03:00,-3.6,-13.7,30.69,North,351,3.0,9.0,61,0.00,,,0.00,VWS V14.01,2013-01-24 05:03:00,
2013-01-23 23:08:00,-3.7,-13.8,30.69,North,356,5.0,13.0,61,0.00,,,0.00,VWS V14.01,2013-01-24 05:08:00,
2013-01-23 23:14:00,-3.8,-13.9,30.70,NNE,16,6.0,13.0,61,0.00,,,0.00,VWS V14.01,2013-01-24 05:14:00,
2013-01-23 23:19:00,-3.9,-13.9,30.70,NNW,348,8.0,13.0,61,0.00,,,0.00,VWS V14.01,2013-01-24 05:19:00,
2013-01-23 23:24:00,-4.0,-14.0,30.70,NNE,14,5.0,13.0,61,0.00,,,0.00,VWS V14.01,2013-01-24 05:24:00,
2013-01-23 23:29:00,-4.0,-11.6,30.70,North,352,6.0,13.0,69,0.00,,,0.00,VWS V14.01,2013-01-24 05:29:00,
2013-01-23 23:30:00,-4.8,-14.5,30.71,NNE,31,3.0,13.0,62,0.00,,,0.00,VWS V15.00,2013-01-24 05:30:00,
2013-01-23 23:34:00,-4.1,-13.8,30.71,NNW,334,6.0,11.0,62,0.00,,,0.00,VWS V14.01,2013-01-24 05:34:00,
2013-01-23 23:40:00,-4.1,-14.1,30.71,North,8,4.0,11.0,61,0.00,,,0.00,VWS V14.01,2013-01-24 05:40:00,
2013-01-23 23:45:00,-4.2,-13.9,30.71,North,358,6.0,13.0,62,0.00,,,0.00,VWS V14.01,2013-01-24 05:45:00,
2013-01-23 23:50:00,-4.3,-14.3,30.71,North,2,9.0,14.0,61,0.00,,,0.00,VWS V14.01,2013-01-24 05:50:00,
2013-01-23 23:55:00,-4.4,-14.4,30.72,NNW,348,9.0,14.0,61,0.00,,,0.00,VWS V14.01,2013-01-24 05:55:00,